GW5491 Weather Reports


Display with metric or nautical units.
time (UTC)temp
F
wind
direction
speed
MPH
gust
MPH
rain 1hr
in
rain 24hr
in
rain mn
in
humidity
%
barometer
mb
20260507000011 68 202 0.0 2.0 0.00 0.00 0.00 58 1016.9
20260506234508 69 198 0.0 2.0 0.00 0.00 0.00 59 1016.8
20260506233010 69 241 0.0 3.0 0.00 0.00 0.00 58 1016.9
20260506231516 69 143 0.0 5.0 0.00 0.00 0.00 56 1017.0
20260506230021 69 151 0.0 8.0 0.00 0.00 0.00 57 1017.1
20260506224524 70 189 0.0 5.0 0.00 0.00 0.00 57 1017.2
20260506223006 70 186 1.0 5.0 0.00 0.00 0.00 55 1017.4
20260506221512 70 137 1.0 5.0 0.00 0.00 0.00 55 1017.5
20260506220018 70 233 0.0 4.0 0.00 0.00 0.00 53 1017.8
20260506214522 71 187 0.0 3.0 0.00 0.00 0.00 52 1017.9
20260506213026 71 191 0.0 5.0 0.00 0.00 0.00 54 1018.1
20260506211511 71 170 0.0 4.0 0.00 0.00 0.00 53 1018.1
20260506210021 71 179 0.0 4.0 0.00 0.00 0.00 54 1018.2
20260506204520 71 216 0.0 0.0 0.00 0.00 0.00 54 1018.2
20260506203031 71 175 0.0 0.0 0.00 0.00 0.00 54 1018.4
20260506201509 71 191 0.0 0.0 0.00 0.00 0.00 55 1018.6
20260506200012 71 155 0.0 0.0 0.00 0.00 0.00 54 1018.7
20260506194503 71 188 0.0 0.0 0.00 0.00 0.00 56 1018.8
20260506193006 71 91 0.0 0.0 0.00 0.00 0.00 55 1018.9
20260506191506 71 201 0.0 0.0 0.00 0.00 0.00 57 1019.1
20260506190009 70 170 0.0 0.0 0.00 0.00 0.00 58 1019.2
20260506184520 70 187 0.0 0.0 0.00 0.00 0.00 59 1019.2
20260506183007 69 193 0.0 0.0 0.00 0.00 0.00 59 1019.1
20260506181507 69 170 0.0 0.0 0.00 0.00 0.00 59 1019.2
20260506180010 69 201 0.0 0.0 0.00 0.00 0.00 62 1019.2
20260506174514 67 192 0.0 0.0 0.00 0.00 0.00 63 1019.2
20260506173020 66 191 0.0 0.0 0.00 0.00 0.00 65 1019.3
20260506171511 64 192 0.0 0.0 0.00 0.00 0.00 68 1019.2
20260506170007 63 191 0.0 0.0 0.00 0.00 0.00 70 1019.4
20260506164517 62 192 0.0 0.0 0.00 0.00 0.00 73 1019.4
20260506163016 61 193 0.0 0.0 0.00 0.00 0.00 77 1019.4
20260506161520 60 193 0.0 0.0 0.00 0.00 0.00 80 1019.4
20260506160026 59 192 0.0 0.0 0.00 0.00 0.00 84 1019.4
20260506154506 57 193 0.0 0.0 0.00 0.00 0.00 87 1019.5
20260506153011 56 193 0.0 1.0 0.00 0.00 0.00 89 1019.5
20260506151529 55 193 0.0 0.0 0.00 0.00 0.00 89 1019.4
20260506150022 54 193 0.0 0.0 0.00 0.00 0.00 89 1019.4
20260506144525 53 193 0.0 0.0 0.00 0.00 0.00 89 1019.4
20260506143008 52 193 0.0 0.0 0.00 0.00 0.00 88 1019.3
20260506141516 51 193 0.0 0.0 0.00 0.00 0.00 88 1019.2
20260506140026 50 193 0.0 0.0 0.00 0.00 0.00 87 1019.2
20260506134522 49 193 0.0 0.0 0.00 0.00 0.00 86 1019.1
20260506133041 49 193 0.0 0.0 0.00 0.00 0.00 86 1019.0
20260506131517 49 193 0.0 0.0 0.00 0.00 0.00 86 1019.0
20260506130005 49 193 0.0 0.0 0.00 0.00 0.00 86 1018.8
20260506124503 50 193 0.0 0.0 0.00 0.00 0.00 86 1018.6
20260506123006 50 193 0.0 0.0 0.00 0.00 0.00 86 1018.5
20260506121508 50 193 0.0 0.0 0.00 0.00 0.00 86 1018.2
20260506120023 50 193 0.0 0.0 0.00 0.00 0.00 86 1018.1
20260506114518 50 193 0.0 0.0 0.00 0.00 0.00 86 1018.1
20260506113006 50 193 0.0 0.0 0.00 0.00 0.00 86 1018.0
20260506111506 50 193 0.0 0.0 0.00 0.00 0.00 86 1018.0
20260506110012 51 193 0.0 0.0 0.00 0.00 0.00 86 1018.0
20260506104515 51 193 0.0 0.0 0.00 0.00 0.00 86 1018.1
20260506103020 51 193 0.0 0.0 0.00 0.00 0.00 85 1018.1
20260506101504 51 193 0.0 0.0 0.00 0.00 0.00 85 1018.1
20260506100010 51 193 0.0 0.0 0.00 0.00 0.00 85 1018.2
20260506094516 51 193 0.0 0.0 0.00 0.00 0.00 85 1018.3
20260506093019 51 193 0.0 0.0 0.00 0.00 0.00 85 1018.2
20260506091521 51 193 0.0 0.0 0.00 0.00 0.00 85 1018.2
20260506090004 51 193 0.0 0.0 0.00 0.00 0.00 84 1018.5
20260506084512 51 193 0.0 0.0 0.00 0.00 0.00 84 1018.6
20260506083014 52 193 0.0 0.0 0.00 0.00 0.00 84 1018.5
20260506081526 52 193 0.0 0.0 0.00 0.00 0.00 84 1018.6
20260506073014 52 193 0.0 0.0 0.00 0.00 0.00 83 1018.7
20260506071518 52 193 0.0 0.0 0.00 0.00 0.00 83 1018.7
20260506061514 53 193 0.0 0.0 0.00 0.00 0.00 81 1018.1
20260506044522 57 193 0.0 0.0 0.00 0.00 0.00 77 1017.4
20260506043025 57 193 0.0 0.0 0.00 0.00 0.00 76 1017.2
20260506041459 58 193 0.0 0.0 0.00 0.00 0.00 74 1017.0
20260506040002 58 193 0.0 0.0 0.00 0.00 0.00 72 1017.0
20260506034503 59 193 0.0 0.0 0.00 0.00 0.00 71 1016.8
20260506033004 59 193 0.0 0.0 0.00 0.00 0.00 71 1016.5
20260506031503 59 193 0.0 0.0 0.00 0.00 0.00 70 1016.3
20260506030004 60 193 0.0 2.0 0.00 0.00 0.00 69 1016.1
20260506024502 60 193 0.0 0.0 0.00 0.00 0.00 68 1016.0
20260506023004 60 193 0.0 0.0 0.00 0.00 0.00 68 1015.8
20260506021503 61 171 0.0 0.0 0.00 0.00 0.00 67 1015.5
20260506020004 61 174 0.0 1.0 0.00 0.00 0.00 66 1015.4
20260506014504 61 135 0.0 4.0 0.00 0.00 0.00 66 1015.5
20260506013002 61 224 0.0 0.0 0.00 0.00 0.00 67 1015.3
20260506011504 60 301 0.0 0.0 0.00 0.00 0.00 67 1015.3
20260506010005 61 203 0.0 4.0 0.00 0.00 0.00 65 1015.3
20260506004505 61 219 0.0 2.0 0.00 0.00 0.00 64 1015.1
20260506003007 62 278 0.0 1.0 0.00 0.00 0.00 64 1015.1
20260506001505 62 169 0.0 5.0 0.00 0.00 0.00 62 1015.1